(217897) = 2001 SW36

Discovered at Socorro on 2001-09-16 by LINEAR.

Orbit

Orbit type: Main Belt

Note: WebGL enabled browser required.

epoch2024-03-31.0
epoch JD2460400.5
perihelion date2022-09-21.45371
perihelion JD2459843.95371
argument of perihelion (°)58.69526
ascending node (°)14.99811
inclination (°)13.93078
eccentricity0.0934715
perihelion distance (AU)2.3165008
Tisserand w.r.t. Jupiter3.4
ΔV w.r.t. Earth (km/sec)10.5
semimajor axis (AU)2.5553535
mean anomaly (°)134.28536
mean daily motion (°/day)0.24128340
aphelion distance (AU)2.794
period (years)4.08
P-vector [x]0.28728113
P-vector [y]0.77648003
P-vector [z]0.56084607
Q-vector [x]-0.95581792
Q-vector [y]0.19430630
Q-vector [z]0.22058369
absolute magnitude16.15
phase slope0.15
uncertainty0
referenceMPEC 2024-F14
observations used569
oppositions17
arc length (days)23183
first opposition used1960
last opposition used2024
residual rms (arc-secs)0.76
perturbers coarse indicatorM-v
perturbers precise indicator003Ek
first observation date used1960-09-26.0
last observation date used2024-03-17.0
computer nameMPCLINUX
JD of orbit computation2456670.711988
perihelion JD uncertainty (days)3.4938E-04
argument of perihelion uncertainty (°)9.2138E-05
ascending node uncertainty (°)9.4403E-06
inclination uncertainty (°)8.0916E-06
eccentricity uncertainty 3.2972E-08
perihelion distance uncertainty (AU)8.3065E-08
Minimum Orbit Intersection Distances (in AU)
for orbit epoch: 2460400.5, reference: E2024-GH2
Mercury2.01307
Venus1.6176
Earth1.35942
Mars0.84541
Jupiter2.47457
Saturn6.80741
Uranus15.8576
Neptune27.4136

Observations

580 total observations over interval: 1960 09 26.26528 – 2024 03 17.595606
These data are available for download (format description).

Date (UT) J2000 RA J2000 Dec Magn Location Ref
1960 09 26.26528 00 06 10.13 -06 08 42.2 19.6   675 – Palomar Mountain MPS 284229
1960 09 26.28541 00 06 08.84 -06 08 42.7 19.2   675 – Palomar Mountain MPS 284229
1960 09 27.30972 00 05 02.58 -06 08 45.6 18.2 V 675 – Palomar Mountain MPS 284229
1960 09 27.34237 00 05 00.46 -06 08 46.3 19.4 V 675 – Palomar Mountain MPS 284229
1960 10 17.20209 23 45 51.81 -05 45 19.9 21.0   675 – Palomar Mountain MPS 284229
1960 10 17.22500 23 45 50.68 -05 45 17.4 20.9   675 – Palomar Mountain MPS 284229
1960 10 24.23750 23 40 58.42 -05 24 06.8 20.3 V 675 – Palomar Mountain MPS 284229
1960 10 24.26111 23 40 57.55 -05 24 00.9 20.1 V 675 – Palomar Mountain MPS 284229
2001 09 11.38731 01 35 52.01 +08 06 35.9 19.4 R 699 – Lowell Observatory-LONEOS MPS 38125
2001 09 11.40778 01 35 51.28 +08 06 40.2   699 – Lowell Observatory-LONEOS MPS 38125
2001 09 11.42833 01 35 50.47 +08 06 42.5   699 – Lowell Observatory-LONEOS MPS 38125
2001 09 11.44891 01 35 49.80 +08 06 46.9   699 – Lowell Observatory-LONEOS MPS 38125
2001 09 16.38421 01 32 41.56 +08 18 44.4 19.1   704 – Lincoln Laboratory ETS, New Mexico MPS 36526
2001 09 16.39855 01 32 40.96 +08 18 46.2 19.5   704 – Lincoln Laboratory ETS, New Mexico MPS 36526
2001 09 16.41297 01 32 40.34 +08 18 47.7 19.4   704 – Lincoln Laboratory ETS, New Mexico MPS 36526
2001 09 19.32806 01 30 30.05 +08 24 48.2 18.9   704 – Lincoln Laboratory ETS, New Mexico MPS 36526
2001 09 19.34219 01 30 29.41 +08 24 50.7 19.2   704 – Lincoln Laboratory ETS, New Mexico MPS 36526
2001 09 19.35633 01 30 28.69 +08 24 52.3 18.7   704 – Lincoln Laboratory ETS, New Mexico MPS 36526
2001 09 19.37047 01 30 28.00 +08 24 54.3 18.9   704 – Lincoln Laboratory ETS, New Mexico MPS 36526
2001 09 19.38461 01 30 27.31 +08 24 55.8 19.2   704 – Lincoln Laboratory ETS, New Mexico MPS 36526
2001 09 21.33474 01 28 52.66 +08 28 30.5 19.3   704 – Lincoln Laboratory ETS, New Mexico MPS 36526
2001 09 21.35518 01 28 51.58 +08 28 33.0 19.5   704 – Lincoln Laboratory ETS, New Mexico MPS 36526
2001 09 21.37157 01 28 50.74 +08 28 34.6 19.5   704 – Lincoln Laboratory ETS, New Mexico MPS 36526
2001 09 21.38577 01 28 50.01 +08 28 36.4 19.7   704 – Lincoln Laboratory ETS, New Mexico MPS 36526
2001 09 21.39998 01 28 49.29 +08 28 37.3 19.6   704 – Lincoln Laboratory ETS, New Mexico MPS 36526
2001 09 23.40482 01 27 05.99 +08 31 58.0 18.1   704 – Lincoln Laboratory ETS, New Mexico MPS 43835
2001 09 23.41910 01 27 05.18 +08 31 59.5 18.4   704 – Lincoln Laboratory ETS, New Mexico MPS 43835
2001 09 23.43339 01 27 04.43 +08 32 00.9 19.0   704 – Lincoln Laboratory ETS, New Mexico MPS 43835
2001 09 24.32069 01 26 17.22 +08 33 24.3 19.8 V 691 – Steward Observatory, Kitt Peak-Spacewatch MPS 40473
2001 09 24.34198 01 26 16.06 +08 33 25.1 19.3 V 691 – Steward Observatory, Kitt Peak-Spacewatch MPS 40473
2001 09 24.35403 01 26 15.26 +08 33 27.9 19.7   704 – Lincoln Laboratory ETS, New Mexico MPS 40473
2001 09 24.36390 01 26 14.78 +08 33 28.2 19.7 V 691 – Steward Observatory, Kitt Peak-Spacewatch MPS 40473
2001 09 24.36864 01 26 14.45 +08 33 28.5 19.8   704 – Lincoln Laboratory ETS, New Mexico MPS 40473
2001 09 24.38327 01 26 13.63 +08 33 30.5 19.7   704 – Lincoln Laboratory ETS, New Mexico MPS 40473
2001 09 24.39790 01 26 12.76 +08 33 31.2 19.7   704 – Lincoln Laboratory ETS, New Mexico MPS 40473
2001 10 11.42046 01 08 33.32 +08 49 26.6 18.3   644 – Palomar Mountain/NEAT MPS 38125
2001 10 11.44144 01 08 31.88 +08 49 27.3 18.4   644 – Palomar Mountain/NEAT MPS 38125
2001 10 11.46243 01 08 30.44 +08 49 27.8 18.3   644 – Palomar Mountain/NEAT MPS 38126
2001 10 12.27376 01 07 36.52 +08 49 51.9 18.3 R 699 – Lowell Observatory-LONEOS MPS 38126
2001 10 12.29714 01 07 34.90 +08 49 51.3   699 – Lowell Observatory-LONEOS MPS 38126
2001 10 12.32062 01 07 33.26 +08 49 52.4   699 – Lowell Observatory-LONEOS MPS 38126
2001 10 12.34414 01 07 31.60 +08 49 53.1   699 – Lowell Observatory-LONEOS MPS 38126
2001 10 13.24609 01 06 31.31 +08 50 18.2 18.8   704 – Lincoln Laboratory ETS, New Mexico MPS 38126
2001 10 13.26172 01 06 30.27 +08 50 18.3 19.0   704 – Lincoln Laboratory ETS, New Mexico MPS 38126
2001 10 13.27747 01 06 29.16 +08 50 18.8 18.9   704 – Lincoln Laboratory ETS, New Mexico MPS 38126
2001 10 13.29312 01 06 28.10 +08 50 19.1 19.1   704 – Lincoln Laboratory ETS, New Mexico MPS 38126
2001 10 13.30902 01 06 26.97 +08 50 19.7 19.1   704 – Lincoln Laboratory ETS, New Mexico MPS 38126
2001 10 14.19128 01 05 28.25 +08 50 41.3 18.2 R 699 – Lowell Observatory-LONEOS MPS 39351
2001 10 14.19601 01 05 27.96 +08 50 40.9   699 – Lowell Observatory-LONEOS MPS 39351
2001 10 14.20075 01 05 27.60 +08 50 41.3   699 – Lowell Observatory-LONEOS MPS 39351
2001 10 14.20541 01 05 27.21 +08 50 41.4   699 – Lowell Observatory-LONEOS MPS 39351
2001 10 15.23957 01 04 18.02 +08 51 08.2 18.6   704 – Lincoln Laboratory ETS, New Mexico MPS 38126
2001 10 15.25547 01 04 16.93 +08 51 08.8 19.0   704 – Lincoln Laboratory ETS, New Mexico MPS 38126
2001 10 15.27134 01 04 15.82 +08 51 09.4 19.4   704 – Lincoln Laboratory ETS, New Mexico MPS 38126
2001 10 15.28719 01 04 14.76 +08 51 09.4 18.7   704 – Lincoln Laboratory ETS, New Mexico MPS 38126
2001 10 15.30304 01 04 13.68 +08 51 09.7 18.8   704 – Lincoln Laboratory ETS, New Mexico MPS 38126
2001 10 17.26145 01 02 03.70 +08 51 54.0 19.5   704 – Lincoln Laboratory ETS, New Mexico MPS 39351
2001 10 17.27742 01 02 02.57 +08 51 54.2 18.9   704 – Lincoln Laboratory ETS, New Mexico MPS 39351
2001 10 17.29341 01 02 01.50 +08 51 54.8 19.3   704 – Lincoln Laboratory ETS, New Mexico MPS 39351
2001 10 17.30975 01 02 00.39 +08 51 54.7 19.2   704 – Lincoln Laboratory ETS, New Mexico MPS 39351
2001 10 19.28205 00 59 51.12 +08 52 37.8 18.5   644 – Palomar Mountain/NEAT MPS 40473
2001 10 19.30246 00 59 49.74 +08 52 38.1 18.4   644 – Palomar Mountain/NEAT MPS 40473
2001 10 19.32372 00 59 48.30 +08 52 38.6 18.5   644 – Palomar Mountain/NEAT MPS 40473
2001 10 21.17517 00 57 49.09 +08 53 20.0 19.1   704 – Lincoln Laboratory ETS, New Mexico MPS 40473
2001 10 21.19154 00 57 48.06 +08 53 20.7 19.6   704 – Lincoln Laboratory ETS, New Mexico MPS 40473
2001 10 21.20790 00 57 46.95 +08 53 20.8 19.6   704 – Lincoln Laboratory ETS, New Mexico MPS 40473
2001 10 21.22429 00 57 45.88 +08 53 20.6 19.1   704 – Lincoln Laboratory ETS, New Mexico MPS 40473
2001 10 21.24067 00 57 44.80 +08 53 20.5 19.1   704 – Lincoln Laboratory ETS, New Mexico MPS 40473
2001 11 05.83951 00 43 20.00 +09 03 35.0 20.0 V 049 – Uppsala-Kvistaberg MPS 40473
2001 11 05.85202 00 43 19.43 +09 03 35.5 20.0 V 049 – Uppsala-Kvistaberg MPS 40473
2001 11 05.86448 00 43 18.86 +09 03 36.4 20.0 V 049 – Uppsala-Kvistaberg MPS 40473
2001 12 11.14045 00 35 58.00 +10 45 49.8 19.7   704 – Lincoln Laboratory ETS, New Mexico MPS 43835
2001 12 11.15575 00 35 58.31 +10 45 55.1 20.4   704 – Lincoln Laboratory ETS, New Mexico MPS 43835
2001 12 11.17103 00 35 58.62 +10 45 59.2 20.5   704 – Lincoln Laboratory ETS, New Mexico MPS 43835
2001 12 11.18632 00 35 58.84 +10 46 04.3 20.4   704 – Lincoln Laboratory ETS, New Mexico MPS 43835
2003 03 23.13375 10 51 06.96 +18 56 20.0 19.4   644 – Palomar Mountain/NEAT MPS 142534
2003 03 23.15459 10 51 05.79 +18 56 17.4 19.6   644 – Palomar Mountain/NEAT MPS 142534
2003 03 23.17575 10 51 04.61 +18 56 14.5 19.4   644 – Palomar Mountain/NEAT MPS 142534
2005 09 09.357837 00 56 04.827 +00 29 09.02 19.73 V 645 – Apache Point-Sloan Digital Sky Survey MPS 390304
2005 09 09.35821 00 56 04.82 +00 29 09.0 20.7   705 – Apache Point MPS 235276
2005 09 09.35903 00 56 04.81 +00 29 08.9 19.8 V 705 – Apache Point MPS 235276
2005 09 09.361309 00 56 04.651 +00 29 09.11 20.60   645 – Apache Point-Sloan Digital Sky Survey MPS 390304
2005 09 23.17644 00 43 29.18 +00 30 12.1 19.6 V 691 – Steward Observatory, Kitt Peak-Spacewatch MPS 142534
2005 09 23.19382 00 43 28.09 +00 30 12.1 19.6 V 691 – Steward Observatory, Kitt Peak-Spacewatch MPS 142534
2005 09 23.21120 00 43 26.99 +00 30 11.9 19.6 V 691 – Steward Observatory, Kitt Peak-Spacewatch MPS 142534
2005 09 23.30152 00 43 21.21 +00 30 11.1 18.9 V 703 – Catalina Sky Survey MPS 142534
2005 09 23.31277 00 43 20.49 +00 30 11.0 19.0 V 703 – Catalina Sky Survey MPS 142534
